Total_Precipitation_Accumulation
0.00 0.01 0.01 0.02 0.02 0.03 0.07 0.12 0.20 0.21 0.21 0.30 0.47 0.71 0.85 0.83 0.88 1.03 1.15 1.35 1.39 1.43 1.70 2.16 2.81 3.48 4.26 5.38 6.05 6.19 5.90 5.18 4.66 4.25 4.00 3.70 3.43 3.15 2.67 2.24 1.97 1.85 1.77 1.70
0.01 0.02 0.02 0.02 0.02 0.03 0.06 0.11 0.20 0.20 0.17 0.20 0.44 0.79 0.91 0.94 1.00 1.00 1.07 1.15 1.09 1.24 1.57 2.17 2.94 3.74 4.40 4.96 5.32 5.41 5.01 4.25 3.75 3.48 3.41 3.12 2.90 2.56 2.35 2.11 2.06 1.76 1.70 1.69
0.03 0.04 0.02 0.02 0.03 0.05 0.09 0.11 0.17 0.20 0.18 0.21 0.44 0.95 1.16 1.07 1.05 1.03 0.93 0.92 1.02 1.25 1.78 2.52 3.33 4.07 4.42 4.44 4.21 3.92 3.73 3.33 3.20 3.14 2.95 2.73 2.67 2.37 2.19 1.99 1.90 1.62 1.45 1.43
0.02 0.03 0.03 0.03 0.05 0.06 0.10 0.08 0.07 0.09 0.15 0.38 0.53 1.07 1.24 1.22 1.15 1.01 0.98 0.98 1.10 1.38 1.92 2.61 3.14 3.38 3.53 3.45 3.15 2.95 2.88 2.80 2.74 2.64 2.52 2.23 2.10 2.05 1.88 1.78 1.79 1.68 1.47 1.40
0.03 0.03 0.04 0.04 0.05 0.05 0.06 0.05 0.05 0.10 0.22 0.42 0.57 0.93 1.28 1.26 1.32 0.91 0.75 0.84 0.94 1.17 1.49 1.69 1.89 2.04 2.16 2.20 2.35 2.42 2.53 2.65 2.55 2.48 2.47 2.37 2.10 2.04 1.99 1.98 2.06 1.92 1.72 1.50
0.03 0.03 0.03 0.04 0.04 0.05 0.05 0.07 0.14 0.24 0.42 0.78 0.80 0.96 1.30 1.30 1.18 0.78 0.55 0.56 0.75 0.85 0.92 1.02 1.11 1.23 1.45 1.51 1.71 1.92 2.05 2.20 2.35 2.38 2.23 2.14 2.07 2.10 2.13 2.08 1.91 1.72 1.58 1.48
0.09 0.08 0.06 0.07 0.06 0.07 0.06 0.11 0.35 0.69 1.05 1.12 0.69 0.79 1.21 1.15 0.83 0.54 0.44 0.42 0.43 0.57 0.73 0.87 1.00 1.11 1.30 1.25 1.32 1.56 1.63 1.65 1.79 1.84 1.80 1.86 1.98 2.02 1.90 1.79 1.73 1.57 1.33 1.30
0.15 0.15 0.10 0.07 0.08 0.08 0.07 0.08 0.22 0.42 0.54 0.72 0.76 1.24 1.46 0.87 0.58 0.44 0.39 0.35 0.34 0.47 0.65 0.75 0.76 0.84 0.96 0.93 1.05 1.21 1.31 1.37 1.43 1.55 1.65 1.61 1.74 1.76 1.67 1.74 1.63 1.49 1.27 1.17
0.06 0.09 0.08 0.07 0.09 0.09 0.08 0.06 0.09 0.14 0.23 0.54 0.95 1.31 1.29 0.78 0.59 0.41 0.36 0.39 0.42 0.39 0.53 0.59 0.54 0.55 0.67 0.77 0.91 1.02 1.10 1.23 1.26 1.40 1.47 1.43 1.52 1.60 1.65 1.65 1.54 1.38 1.38 1.24
0.04 0.04 0.06 0.06 0.08 0.09 0.08 0.09 0.10 0.14 0.24 0.48 0.85 1.34 1.61 1.17 0.66 0.48 0.46 0.47 0.50 0.42 0.45 0.48 0.48 0.44 0.51 0.66 0.92 1.01 1.02 1.14 1.18 1.28 1.28 1.16 1.32 1.44 1.57 1.52 1.44 1.41 1.43 1.36
0.04 0.04 0.06 0.07 0.08 0.10 0.10 0.10 0.12 0.14 0.17 0.28 0.66 1.00 0.90 0.89 0.65 0.62 0.61 0.55 0.53 0.48 0.50 0.47 0.46 0.46 0.43 0.54 0.76 0.83 0.96 1.08 1.13 1.21 1.31 1.35 1.35 1.29 1.40 1.42 1.39 1.43 1.47 1.40
0.04 0.05 0.06 0.09 0.11 0.12 0.13 0.13 0.14 0.16 0.15 0.16 0.32 0.55 0.55 0.71 0.67 0.67 0.73 0.67 0.62 0.46 0.41 0.43 0.47 0.51 0.47 0.48 0.58 0.72 0.89 1.04 1.09 1.16 1.28 1.37 1.50 1.46 1.42 1.40 1.43 1.46 1.55 1.60
0.04 0.05 0.09 0.17 0.23 0.19 0.13 0.12 0.13 0.14 0.11 0.13 0.32 0.52 0.50 0.56 0.61 0.58 0.71 0.71 0.62 0.57 0.52 0.51 0.55 0.59 0.61 0.58 0.61 0.73 0.87 1.03 1.13 1.22 1.29 1.44 1.52 1.43 1.38 1.49 1.57 1.59 1.72 1.84
0.04 0.04 0.07 0.18 0.26 0.29 0.21 0.14 0.14 0.12 0.11 0.12 0.21 0.45 0.51 0.57 0.58 0.64 0.72 0.74 0.72 0.69 0.61 0.54 0.52 0.55 0.65 0.79 0.81 0.87 1.11 1.12 1.12 1.31 1.45 1.52 1.56 1.51 1.49 1.58 1.68 1.69 1.76 1.91
0.04 0.04 0.05 0.06 0.10 0.16 0.20 0.18 0.14 0.10 0.08 0.11 0.20 0.37 0.48 0.60 0.68 0.71 0.71 0.66 0.62 0.62 0.58 0.50 0.49 0.53 0.63 0.76 0.83 0.95 1.02 1.20 1.25 1.44 1.59 1.64 1.75 1.78 1.81 1.90 1.91 1.84 1.84 1.87
0.07 0.06 0.05 0.04 0.08 0.12 0.15 0.17 0.13 0.10 0.08 0.08 0.18 0.40 0.50 0.55 0.61 0.71 0.68 0.68 0.66 0.59 0.56 0.58 0.62 0.64 0.67 0.72 0.79 0.86 0.92 1.12 1.34 1.64 1.96 1.99 2.02 2.02 2.09 2.24 2.32 2.22 2.19 2.28
0.13 0.11 0.09 0.08 0.11 0.12 0.17 0.17 0.15 0.16 0.15 0.17 0.25 0.37 0.46 0.54 0.64 0.84 0.82 0.76 0.77 0.74 0.73 0.77 0.87 0.86 0.82 0.82 0.86 0.94 1.04 1.22 1.50 1.80 2.06 2.21 2.25 2.27 2.32 2.42 2.44 2.37 2.47 2.64
0.20 0.20 0.16 0.13 0.17 0.23 0.21 0.21 0.20 0.24 0.26 0.30 0.38 0.41 0.55 0.76 0.86 1.03 1.06 0.93 0.89 0.82 0.78 0.84 0.98 1.02 0.98 0.98 1.06 1.19 1.36 1.58 1.86 2.06 2.19 2.30 2.30 2.30 2.34 2.38 2.30 2.32 2.46 2.53
0.21 0.25 0.26 0.23 0.26 0.26 0.30 0.33 0.35 0.40 0.52 0.52 0.60 0.67 0.78 0.90 0.88 0.96 0.91 0.81 0.79 0.76 0.83 0.90 1.01 1.12 1.19 1.22 1.31 1.40 1.53 1.72 1.96 2.10 2.12 2.10 2.17 2.24 2.28 2.30 2.34 2.38 2.37 2.25
0.31 0.32 0.40 0.36 0.39 0.42 0.46 0.48 0.44 0.52 0.97 0.98 0.94 0.89 0.86 0.93 1.15 1.13 0.92 0.82 0.83 0.80 0.81 0.94 0.97 1.05 1.17 1.28 1.31 1.40 1.58 1.77 1.96 2.09 2.10 2.06 2.14 2.21 2.25 2.30 2.36 2.31 2.22 2.16
0.52 0.55 0.52 0.51 0.55 0.52 0.50 0.46 0.45 0.80 1.14 1.10 1.09 1.12 1.04 1.12 1.20 1.17 1.05 1.03 0.96 0.91 0.89 0.93 1.00 1.07 1.12 1.22 1.30 1.41 1.55 1.66 1.78 1.90 2.00 2.13 2.27 2.31 2.30 2.32 2.29 2.22 2.12 2.13
0.64 0.68 0.68 0.68 0.85 0.90 0.65 0.54 0.77 1.05 0.94 1.10 1.22 1.21 1.19 1.14 1.07 1.10 1.11 1.09 1.04 0.98 0.97 1.01 1.08 1.21 1.28 1.33 1.36 1.46 1.47 1.55 1.71 1.77 1.88 1.92 2.03 2.13 2.11 2.16 2.08 2.08 2.05 2.02
0.81 0.81 0.84 0.95 1.08 0.90 0.74 0.76 0.85 0.91 0.99 1.07 1.19 1.25 1.21 1.25 1.20 1.06 1.06 1.03 1.19 1.24 1.18 1.13 1.12 1.18 1.26 1.37 1.47 1.56 1.54 1.51 1.55 1.64 1.76 1.85 1.91 2.05 2.10 2.11 2.01 1.93 1.89 1.82
1.01 0.82 0.92 1.17 1.24 1.08 0.98 0.94 0.87 0.86 0.92 0.98 1.12 1.24 1.31 1.29 1.15 1.07 1.01 0.99 0.98 1.01 1.01 1.06 1.07 1.13 1.31 1.32 1.39 1.51 1.58 1.54 1.58 1.65 1.67 1.76 1.83 1.91 2.09 2.11 1.96 1.83 1.71 1.64
1.15 1.15 1.16 1.36 1.40 1.20 1.08 1.01 1.05 1.03 0.98 0.97 1.06 1.14 1.16 1.10 1.08 1.08 1.03 0.97 0.94 0.90 0.88 0.89 0.93 0.97 1.06 1.10 1.15 1.26 1.37 1.42 1.40 1.38 1.34 1.34 1.46 1.62 1.80 1.85 1.80 1.63 1.53 1.60
1.08 1.31 1.46 1.53 1.36 1.35 1.36 1.24 1.21 1.26 1.26 1.22 1.18 1.18 1.10 1.02 1.00 0.96 0.90 0.85 0.82 0.77 0.73 0.77 0.80 0.83 0.86 0.92 1.02 1.14 1.32 1.45 1.45 1.35 1.25 1.22 1.23 1.32 1.52 1.72 1.80 1.66 1.44 1.48